Location: Carabito
(9.8355°N, 67.9249°W)
Time: 22:25:22
(UTC+00:00)

USA 215 - Pass Details

Date: 23 May 2024
Orbit: 1100 x 1107 km, 123.0° (Epoch: 22 April)

Event Time Altitude Azimuth Distance (km) Brightness Sun altitude
Rises 08:34:06 0° 31° (NNE) 3,908 7.1 -22.4°
Reaches altitude 10° 08:36:35 10° 29° (NNE) 2,950 6.3 -21.8°
Maximum altitude 08:43:02 68° 308° (NW) 1,173 3.2 -20.4°
Enters shadow 08:46:19 31° 234° (SW) 1,812 3.8 -19.7°
